• Le Poker by Infinite Player


    En France !!!

    Viens jouer au poker dans ton spot

    favori : c'est en live, c'est 100% gratuit

    et c'est super convivial.

    Rejoins la famille Infinite Player ;)

  • Infinite Player

    Résultats

    Consultez vos

    classements

    et statistiques

  • Les soirées Poker Infinite Player

    Dans votre établissement ?

    Devenir

    établissement partenaire

    Que vous soyez un bowling, un bar, un restaurant,

    un escape-game, un hôtel, ou même une salle de billard

    vous pouvez très nettement augmenter votre clientèle de

    semaine en hébergeant facilement nos tournois, contactez-nous !

INFINITE PLAYER :

La seule Ligue 100% gratuite de poker en Suisse depuis 2015, et en France depuis 2020 !!!

Pour participer c’est très simple, connecte-toi à ton espace personnel, choisis le jour où tu veux jouer, inscris-toi, et c'est parti !

Selon ton classement et du nombre de joueurs, tu obtiens des points qui forment une moyenne et ainsi, à chaque fin de saison (4 mois), te donneront accès aux finales, toujours 100% gratuites, regroupant les meilleurs joueurs de la région et avec une superbe dotation !!

Auras-tu l’aplomb ? Seras-tu le prochain champion INFINITE PLAYER en remportant des tickets pour les plus grands tournois d’Europe ?

(Dont les fameux évènements de notre partenaire Winamax : le Winamax Poker Tour, le Winamax Poker Open et le Sismix)

SHUFFLE UP AND DEAL !!!

Dernières nouvelles

Le championnat Infinite Player du Q1 2022 se termine ce 30 avril 2022, plus qu'une semaine pour te qualifier !!

CLIQUE ICI POUR Y ACCEDER

Le classement Infinite Player du Q3 2021 dans la zone SUD est disponible.

CLIQUE ICI POUR Y ACCEDER

A jour au 30/12, prochaine mise à jour le 31/12.

Le classement Infinite Player du Q3 2021 en Rhône-Alpes est disponible.

CLIQUE ICI POUR Y ACCEDER

A jour au 30/12, prochaine mise à jour le 31/12.

Tu veux jouer avec nous Online et participer à nos divers championnats ? C'est par ici que ça se passe :

CLIQUE ICI POUR Y ACCEDER

LA SORTIE DU COVID APPROCHE !! On reprend enfin le Poker Live gratuit dans vos établissements favoris après cette longue période sans vous voir. En Juin c'est seulement les week-end (couvre-feu oblige) et dès Juillet retour à la normale. Par contre, le masque reste obligatoire et le 6-max imposé jusqu'à nouvel ordre.

DEPUIS 2015 EN SUISSE, NOUS VOICI ENFIN EN FRANCE !! Jouez au poker dans votre établissement favori : C'est en live, c'est 100% gratuit, et vous vous créez un cercle d'amis.

Nouveaux établissements

44 rue Antoine Masson,
AUXONNE (21130)

117 rue des Alliés,
GRENOBLE (38100)

279 Rte des Marais, ZAE de Findrol,
FILLINGES (74250)

Tournois à venir

Ville

Établissement

Jour

Date / Heure de RDV
(start 30' après)

Inscriptions

202205251845 LE CANNET (06110) Le Mediterranée Mercredi 25 mai 18:45 12/24
202205251900 GORREVOD (01190) Le Repère (Mercredi) Mercredi 25 mai 19:00 2/24
202205251900 SALAISE-SUR-SANNE (38150) Le Cargo Mercredi 25 mai 19:00 11/27
202205251900 ANNEMASSE (74100) Le Little Rock Mercredi 25 mai 19:00 24/24 +5 intéressés
202205251900 THONON-LES-BAINS (74200) O'CodeBar Mercredi 25 mai 19:00 5/16
202205251900 LAGNIEU (01150) La Grange (Mercredi) Mercredi 25 mai 19:00 4/32
202205251900 CLERMONT-L'HERAULT (34800) Le Air Soccer 5 Mercredi 25 mai 19:00 14/24
202205251900 MONTMELIAN (73800) O'BeeRock Mercredi 25 mai 19:00 15/27
202205251900 HYERES (83400) Le People Mercredi 25 mai 19:00 11/24
202205251900 ANNECY (74000) Le Saint Germain (Mercredi) Mercredi 25 mai 19:00 9/21
202205251930 CHÂTILLON SAINT JEAN (26750) Le M (Mercredi) Mercredi 25 mai 19:30 5/32
202205261900 ANNECY (74000) Le Saint Germain (Jeudi) Jeudi 26 mai 19:00 2/21
202205261900 BELLEVILLE (69220) L'Original Bar Jeudi 26 mai 19:00 6/24
202205261900 TOULON (83000) Les Aludes Jeudi 26 mai 19:00 4/27
202205261900 GRILLY (01220) L'Echappée Belle Jeudi 26 mai 19:00 7/18
202205261900 RIORGES (42153) Le Bowling de Riorges (Jeudi) Jeudi 26 mai 19:00 1/24
202205261900 DAVEZIEUX (07430) La Loco Jeudi 26 mai 19:00 4/9
202205261900 FILLINGES (74250) L'Hôtel Campanile Jeudi 26 mai 19:00 18/18 +1 intéressé
202205261900 CHÂTILLON SAINT JEAN (26750) Le M (Jeudi) Jeudi 26 mai 19:00 4/32
202205271900 IZEAUX (38140) Les 3 Petits Bergers Vendredi 27 mai 19:00 4/18
202205271900 CLERMONT-L'HERAULT (34800) Le Air Soccer 5 Vendredi 27 mai 19:00 0/24
202205271900 ANDREZIEUX (42160) Le Club 42 Vendredi 27 mai 19:00 6/18
202205271930 ANNEMASSE (74100) Le Madness Beear (Vendredi) Vendredi 27 mai 19:30 17/32
202205291700 MONTPELLIER (34000) My Beers (Montpellier) Dimanche 29 mai 17:00 1/24
202205291730 ARLES (13200) My Beers (Arles) Dimanche 29 mai 17:30 12/27
202205291800 LE THOR (84250) My Beers (Isle sur Sorgue) Dimanche 29 mai 18:00 24/27
202205291830 ROQUEBRUNE-SUR-ARGENS (83520) La Bonne Etoile Dimanche 29 mai 18:30 18/36
202205291900 NICE (06000) Le Latino Son Dimanche 29 mai 19:00 36/36 +1 intéressé
202205301830 SAINT JULIEN EN GENEVOIS (74160) Le Saint Jus (Lundi) Lundi 30 mai 18:30 3/18
202205301900 CHAMBERY (73000) Le Brock Art Lundi 30 mai 19:00 10/24
202205301900 MONTPELLIER (34000) The Shakespeare Lundi 30 mai 19:00 2/18
202205301900 SILLINGY (74330) L'American Diner Lundi 30 mai 19:00 4/32
202205301900 LONS-LE-SAUNIER (39000) La Lanterna Lundi 30 mai 19:00 3/16
202205301900 BOURG-EN-BRESSE (01000) L'Ardoise (Lundi) Lundi 30 mai 19:00 0/36
202205301930 THONON-LES-BAINS (74200) La Bodega Lundi 30 mai 19:30 3/40
202205301930 LES ABRETS (38490) Le 927 Lundi 30 mai 19:30 4/18
202205311830 SAINT JULIEN EN GENEVOIS (74160) Le Saint Jus (Mardi) Mardi 31 mai 18:30 7/20
202205311830 CHALON SUR SAÔNE (71100) Au Bureau Chalon Mardi 31 mai 18:30 18/18 +6 intéressés
202205311830 AVIGNON (84000) Le Beer District Mardi 31 mai 18:30 4/27
202205311900 LYON (69002) The King Arthur Mardi 31 mai 19:00 5/18
202205311900 THONON-LES-BAINS (74200) Le Café du Palais Mardi 31 mai 19:00 0/32
202205311900 SEYNOD (74600) Le Crazy Clock Mardi 31 mai 19:00 0/24
202205311900 LAGNIEU (01150) La Grange (Mardi) Mardi 31 mai 19:00 0/24
202205311900 NEZIGNAN-L'ÉVEQUE (34120) L'Eden Mardi 31 mai 19:00 0/16
202205311900 GRENOBLE (38100) Chez Mumu Mardi 31 mai 19:00 4/30
202205311900 SCIONZIER (74950) Le BobbyBar Mardi 31 mai 19:00 5/24
202205311900 NICE (06300) L'Akathor Mardi 31 mai 19:00 36/36 +3 intéressés
202205311900 RIORGES (42153) Le Bowling de Riorges (Mardi) Mardi 31 mai 19:00 0/24
202205311900 VALENCE (26000) Le Speakeasy Mardi 31 mai 19:00 0/24
202205311900 GORREVOD (01190) Le Repère (Mardi) Mardi 31 mai 19:00 0/24
202205311930 AIX-EN-PROVENCE (13100) Le Bar BQ Mardi 31 mai 19:30 1/18
202205311930 LES ABRETS (38490) Le Gambetta Mardi 31 mai 19:30 0/24
202206011845 LE CANNET (06110) Le Mediterranée Mercredi 01 juin 18:45 3/24
202206011900 SALAISE-SUR-SANNE (38150) Le Cargo Mercredi 01 juin 19:00 1/27
202206011900 THONON-LES-BAINS (74200) O'CodeBar Mercredi 01 juin 19:00 0/16
202206011900 MONTMELIAN (73800) O'BeeRock Mercredi 01 juin 19:00 7/27
202206011900 ANNECY (74000) Le Saint Germain (Mercredi) Mercredi 01 juin 19:00 0/21
202206011900 ANNEMASSE (74100) Le Little Rock Mercredi 01 juin 19:00 15/24
202206011900 LAGNIEU (01150) La Grange (Mercredi) Mercredi 01 juin 19:00 0/32
202206011900 AUXONNE (21130) Le Barbar Café Mercredi 01 juin 19:00 2/24
202206011900 HYERES (83400) Le People Mercredi 01 juin 19:00 1/24
202206011900 VALENCE (26000) Le 12/04 Mercredi 01 juin 19:00 0/24
202206011900 GORREVOD (01190) Le Repère (Mercredi) Mercredi 01 juin 19:00 0/24
202206011900 CLERMONT-L'HERAULT (34800) Le Air Soccer 5 Mercredi 01 juin 19:00 0/24
202206011930 CHÂTILLON SAINT JEAN (26750) Le M (Mercredi) Mercredi 01 juin 19:30 1/32
202206011930 CESSY (01170) Le Cadence Café Mercredi 01 juin 19:30 6/27
202206021900 CHÂTILLON SAINT JEAN (26750) Le M (Jeudi) Jeudi 02 juin 19:00 1/32
202206021900 DAVEZIEUX (07430) La Loco Jeudi 02 juin 19:00 0/9
202206021900 GRESY-SUR-AIX (73100) L'Envie Jeudi 02 juin 19:00 1/18
202206021900 AUBAGNE (13400) Les Enfants Gâtés Jeudi 02 juin 19:00 0/24
202206021900 THONON-LES-BAINS (74200) Le  Flore Jeudi 02 juin 19:00 1/32
202206021900 RIORGES (42153) Le Bowling de Riorges (Jeudi) Jeudi 02 juin 19:00 0/24
202206021900 TOULON (83000) Les Aludes Jeudi 02 juin 19:00 3/27
202206021900 BESANCON (25000) Le Fontaine Argent Jeudi 02 juin 19:00 9/24
202206021900 FILLINGES (74250) L'Hôtel Campanile Jeudi 02 juin 19:00 4/18
202206021900 BELLEVILLE (69220) L'Original Bar Jeudi 02 juin 19:00 2/24
202206021900 ANNECY (74000) Le Saint Germain (Jeudi) Jeudi 02 juin 19:00 1/21
202206021900 GRILLY (01220) L'Echappée Belle Jeudi 02 juin 19:00 2/18
202206031900 IZEAUX (38140) Les 3 Petits Bergers Vendredi 03 juin 19:00 0/18
202206031900 ANDREZIEUX (42160) Le Club 42 Vendredi 03 juin 19:00 2/18
202206031930 ANNEMASSE (74100) Le Madness Beear (Vendredi) Vendredi 03 juin 19:30 2/32
202206051700 MONTPELLIER (34000) My Beers (Montpellier) Dimanche 05 juin 17:00 1/24
202206051730 ARLES (13200) My Beers (Arles) Dimanche 05 juin 17:30 2/27
202206051800 LE THOR (84250) My Beers (Isle sur Sorgue) Dimanche 05 juin 18:00 17/27
202206051830 ROQUEBRUNE-SUR-ARGENS (83520) La Bonne Etoile Dimanche 05 juin 18:30 10/36
202206051900 NICE (06000) Le Latino Son Dimanche 05 juin 19:00 36/36
202206061830 SAINT JULIEN EN GENEVOIS (74160) Le Saint Jus (Lundi) Lundi 06 juin 18:30 3/18
202206061900 CHAMBERY (73000) Le Brock Art Lundi 06 juin 19:00 3/24
202206061900 MONTPELLIER (34000) The Shakespeare Lundi 06 juin 19:00 1/18
202206061900 BOURG-EN-BRESSE (01000) L'Ardoise (Lundi) Lundi 06 juin 19:00 0/36
202206061900 LONS-LE-SAUNIER (39000) La Lanterna Lundi 06 juin 19:00 1/16
202206061900 SILLINGY (74330) L'American Diner Lundi 06 juin 19:00 2/32
202206061930 THONON-LES-BAINS (74200) La Bodega Lundi 06 juin 19:30 0/40
202206061930 LES ABRETS (38490) Le 927 Lundi 06 juin 19:30 0/18
202206071830 AVIGNON (84000) Le Beer District Mardi 07 juin 18:30 0/27
202206071830 SAINT JULIEN EN GENEVOIS (74160) Le Saint Jus (Mardi) Mardi 07 juin 18:30 12/20
202206071830 CHALON SUR SAÔNE (71100) Au Bureau Chalon Mardi 07 juin 18:30 18/18 +2 intéressés
202206071900 LAGNIEU (01150) La Grange (Mardi) Mardi 07 juin 19:00 0/24
202206071900 LYON (69002) The King Arthur Mardi 07 juin 19:00 2/18
202206071900 THONON-LES-BAINS (74200) Le Café du Palais Mardi 07 juin 19:00 0/32
Page sur

Devenir établissement partenaire

INFINITE PLAYER vous propose bien plus qu'une prestationn, un véritable partenariat pour l'animation dans vos bars, restaurants, bowling… grâce à notre concept de poker 100% gratuit et, bien évidemment, 100% légal.

Notre ambition est d’aider nos établissements partenaires à renforcer la vie sociale et développer une communauté de leur lieu en proposant une animation moderne, tendance et régulière !


Une prestation 3 en 1, à moindres coûts !

  • Vous aider à dynamiser une ou plusieurs soirées creuses dans la semaine.

  • Vous apporter une nouvelle clientèle, la fidéliser rapidement et durablement.

  • Accroître votre notoriété et faire parler de votre établissement.


Pour cela, nous vous apportons :


Contactez nous


  • Email : contact@infiniteplayer.fr

Merci de saisir votre nom ou pseudo

Posez nous toutes vos questions

Merci, votre message a été envoyé avec succès.

Echec de l'envoi, veuillez verifier votre adresse mail.

Echec de l'envoi, veuillez verifier votre nom.

Echec de l'envoi, n'avez-vous pas oublié de taper votre message ?

Echec de l'envoi, une erreur est survenue